[Date Prev][Date Next][Thread Prev][Thread Next] - [Date Index][Thread Index][Author Index]

2 Line ISS Keps 7-7



ISS
1 25544U 98067A   04189.47626970  .00004934  00000-0  45729-4 0  1648
2 25544  51.6304 222.2582 0005865 336.9185 169.6943 15.69597147321506

----
Via the sarex mailing list at AMSAT.ORG courtesy of AMSAT-NA.
To unsubscribe, send "unsubscribe sarex" to Majordomo@amsat.org



AMSAT Top AMSAT Home